Погода в Спасском

Россия / Кировская область     57°47′40″N   50°56′24″E
темп.,
°C
ветер,
м/с
пор.,
м/с
влажн.,
%
обл.,
%
осадки,
мм/ч
давл.,
гПа
погр.,
м
16 апреля, пт
пт1600:00+6св71381100 0.1 1024539
03:00+5всв61280100 0.1 1026591
06:00+3всв6127670 0.0 1027537
09:00+5всв710625 0.0 1028690
12:00+8всв67483 0.0 10291000
15:00+9св67420 0.0 10281101
18:00+7св37583 0.0 1029158
21:00+3всв37690 0.0 1030112
17 апреля, сб
сб1700:00+2св36735 0.0 103099
03:00+1св35755 0.0 103182
06:00+2св36715 0.0 1031170
09:00+7св45540 0.0 1030758
12:00+9ссв34475 0.0 10291195
15:00+10с34455 0.0 10281343
18:00+8ссз34595 0.0 102776
21:00+5ссз35695 0.0 102762
18 апреля, вс
вс1800:00+4с37790 0.0 1027135
03:00+2с37843 0.0 1027137
06:00+3ссв49855 0.0 1028293
09:00+6св676990 0.0 1029975
12:00+7св664749 0.0 10291493
15:00+7всв673538 0.0 10301641
18:00+4всв594421 0.0 1031601
21:00+2всв5115577 0.0 1033342
19 апреля, пн
пн1900:000всв513612 0.0 1034408
03:00−1всв510665 0.0 1036335
06:000в510600 0.0 1036422
09:00+4в68370 0.0 10371434
12:00+6в67322 0.0 10361656
15:00+6в56300 0.0 10361698
18:00+4в47430 0.0 1036187
21:00+1вюв38530 0.0 1037132
20 апреля, вт
вт2000:00−1вюв38520 0.0 1038147
03:00−1вюв37510 0.0 1038143
06:000вюв48440 0.0 1038254
09:00+5юв56310 0.0 1036860
12:00+8юв45320 0.0 10351339
15:00+9ююв45310 0.0 10331415
18:00+6ююв35470 0.0 1032108
21:00+2юв485697 0.0 1033122